Home   Weather   Barnstable   Past weeks

Flag for USA Past Weather in Barnstable, Massachusetts, USA — Yesterday and Last 2 Weeks

Now
21 °F

Clear.


Feels Like: 16 °F
Forecast: 22 / 35 °F
Wind: 3 mph from West

Location: Barnstable Municipal-Boardman Airport

Current Time: Dec 11, 2016 at 1:26:57 am

Latest Report: Dec 11, 2016 at 12:56 am


Visibility: 10 mi

Pressure: 30.42 "Hg

Humidity: 62%

Dew Point: 10 °F

Location of BarnstableLocation

Past Weather in Barnstable — Graph

°F

Barnstable Temperature Yesterday

Maximum temperature yesterday: 30 °F (at 1:56 pm)
Minimum temperature yesterday: 21 °F (at 6:56 am)
Average temperature yesterday: 25 °F

High & Low Weather Summary for the Past Weeks

 TemperatureHumidityPressure
High59 °F (Nov 29, 11:56 pm)100% (Nov 30, 7:56 am)30.42 "Hg (Nov 30, 7:56 am)
Low21 °F (Dec 10, 6:56 am)34% (Dec 10, 1:56 pm)29.41 "Hg (Dec 1, 7:56 am)
Average40 °F71%29.96 "Hg
* Reported Nov 25 11:56 pm — Dec 10 11:56 pm, Barnstable, Weather by CustomWeather, © 2016

Note: Actual official high and low records may vary slightly from our data, if they occured in-between our weather recording intervals... More about our weather records

Advertising

Barnstable Weather History for the Previous 24 Hours

Scroll right to see more
 ConditionsComfort  
Time TempWeatherWind HumidityBarometerVisibility
11:56 pm
Sat, Dec 10
22 °FClear.5 mph57%30.42 "Hg10 mi
10:56 pm23 °FClear.5 mph55%30.41 "Hg10 mi
9:56 pm23 °FClear.6 mph53%30.41 "Hg10 mi
8:56 pm25 °FClear.6 mph48%30.38 "Hg10 mi
7:56 pm25 °FClear.6 mph44%30.37 "Hg10 mi
6:56 pm25 °FClear.6 mph42%30.35 "Hg10 mi
5:56 pm25 °FClear.6 mph42%30.33 "Hg10 mi
4:56 pm26 °FClear.5 mph40%30.31 "Hg10 mi
3:56 pm27 °FSunny.7 mph39%30.29 "Hg10 mi
2:56 pm29 °FSunny.9 mph36%30.26 "Hg10 mi
1:56 pm30 °FSunny.10 mph34%30.24 "Hg10 mi
12:56 pm29 °FSunny.13 mph38%30.24 "Hg10 mi
11:56 am28 °FSunny.9 mph41%30.26 "Hg10 mi
10:56 am27 °FSunny.13 mph42%30.28 "Hg10 mi
9:56 am26 °FSunny.14 mph46%30.30 "Hg10 mi
8:56 am24 °FSunny.10 mph48%30.28 "Hg10 mi
7:56 am22 °FSunny.12 mph52%30.27 "Hg10 mi
6:56 am21 °FClear.9 mph55%30.26 "Hg10 mi
5:56 am22 °FClear.8 mph52%30.24 "Hg10 mi
4:56 am23 °FClear.7 mph50%30.22 "Hg10 mi
3:56 am23 °FClear.10 mph50%30.21 "Hg10 mi
2:56 am24 °FPassing clouds.8 mph46%30.19 "Hg10 mi
1:56 am25 °FClear.12 mph44%30.18 "Hg10 mi
Weather by CustomWeather, © 2016

See weather overviewHow to use our weather pages